Regional Weather Roundup
Issued by NWS Albany, NY

Home | Current Version | Previous Version | Text Only | Print | Product List | Glossary On
Versions: 1 2 3 4 5 6 7 8 9 10 11 12 13 14 15 16 17 18 19 20 21 22 23 24 25 26 27 28 29 30 31 32 33 34 35 36 37 38 39 40 41 42 43 44 45 46 47 48 49 50
000
ASUS41 KALY 200510
RWRALY

NEW YORK STATE HOURLY WEATHER ROUNDUP
NATIONAL WEATHER SERVICE ALBANY NY
100 AM EDT WED AUG 20 2014

NOTE: "FAIR" INDICATES FEW OR NO CLOUDS BELOW 12,000 FEET WITH NO
SIGNIFICANT WEATHER AND/OR NO OBSTRUCTIONS TO VISIBILITY.

NYZ032-033-038>043-046>054-057>066-NYZ062>081-200600-
EAST


CITY           SKY/WX    TMP DP  RH WIND       PRES   REMARKS
ALBANY         PTCLDY    61  56  83 CALM      29.95R
GLENS FALLS    MOCLDY    55  52  89 CALM      29.96R
POUGHKEEPSIE   CLEAR     62  59  90 CALM      29.94R
NEWBURGH       CLEAR     64  63  94 CALM      29.97R
MONTGOMERY     PTCLDY    60  57  89 CALM      29.95S
WHITE PLAINS   PTCLDY    65  63  93 CALM      29.95S
ISLIP          MOCLDY    66  62  87 CALM      29.94R
NEW YORK CITY  PTCLDY    72  65  78 S6        29.94S
CENTRAL PARK   PTCLDY    71  63  75 CALM      29.97S
$$

NYZ005>009-017-018-044>046-055-056-200600-
CENTRAL


CITY           SKY/WX    TMP DP  RH WIND       PRES   REMARKS
FULTON         CLEAR     66  58  75 CALM      29.88R
SYRACUSE       PTCLDY    65  60  84 E5        29.88S
ROME           PTCLDY    65  55  70 E7        29.92S
ELMIRA         PTCLDY    63  63 100 CALM      29.92R FOG
BINGHAMTON     CLEAR     66  62  87 S3        29.95S
MONTICELLO     MOCLDY    64  55  72 E3        29.98F
$$

NYZ026>034-041>043-200600-
NORTH


CITY           SKY/WX    TMP DP  RH WIND       PRES   REMARKS
WATERTOWN      PTCLDY    59  53  80 CALM      29.88S
FORT DRUM      NOT AVBL
MASSENA        CLEAR     56  54  93 CALM      29.93R
SARANAC LAKE   CLEAR     45  44  97 CALM      29.96S
PLATTSBURGH    CLEAR     52  51  97 CALM      29.95R
$$

NYZ001>004-010>016-019>021-200600-
WEST


CITY           SKY/WX    TMP DP  RH WIND       PRES   REMARKS
NIAGARA FALLS  CLOUDY    68  60  75 SE9       29.83F
BUFFALO        CLOUDY    68  54  60 SE7       29.85S
DUNKIRK        CLOUDY    70  62  76 S12G24    29.87S
JAMESTOWN      CLOUDY    66  57  72 SW9       29.94S
WELLSVILLE     PTCLDY    66  63  90 S5        29.96F
ROCHESTER      MOCLDY    61  58  90 CALM      29.87S
PENN YAN       CLEAR     68  65  90 SW7       29.90S
$$

             KEY
       WCI = WIND CHILL INDEX
       VSB = VISIBILITY
       HX  = HEAT INDEX
$$



USA.gov is the U.S. government's official web portal to all federal, state and local government web resources and services.